When you browse on this site, cookies collect data to enhance your experience and personalize the content and advertising you see.
Visit our Privacy Policy to learn more. By continuing to use the site, you agree to this use of cookies and data.
  • In Romania
  • List of Countries
  • For 7 days
  • Water Temperature
  • Satellite Maps
  • Weather Map
  • Weather Widgets
  • user-avatar
    Login

    Hourly Weather Jazd

    Today, 26 March, Tuesday

    Time Temperature Precipitation Wind Pressure Humidity
    00:00 +8°C° 0.1 mm 7 mps 556 mmHg 72%
    01:00 +7°C° 0.1 mm 8 mps 556 mmHg 72%
    02:00 +7°C° 0.4 mm 8 mps 556 mmHg 73%
    03:00 +6°C° 0.4 mm 9 mps 556 mmHg 74%
    04:00 +6°C° 0 mm 11 mps 555 mmHg 76%
    05:00 +6°C° 0.8 mm 9 mps 556 mmHg 75%
    06:00 +6°C° 0.8 mm 7 mps 556 mmHg 75%
    07:00 +5°C° 0.8 mm 6 mps 556 mmHg 75%
    08:00 +7°C° 0.2 mm 6 mps 557 mmHg 72%
    09:00 +6°C° 0.2 mm 7 mps 557 mmHg 69%
    10:00 +8°C° 0.2 mm 7 mps 557 mmHg 67%
    11:00 +7°C° 0.5 mm 8 mps 557 mmHg 64%
    12:00 +9°C° 0.5 mm 8 mps 557 mmHg 62%
    13:00 +8°C° 0.5 mm 9 mps 556 mmHg 59%
    14:00 +8°C° 1.2 mm 9 mps 556 mmHg 60%
    15:00 +8°C° 1.2 mm 9 mps 555 mmHg 61%
    16:00 +8°C° 1.2 mm 10 mps 555 mmHg 61%
    17:00 +8°C° 0.4 mm 10 mps 555 mmHg 62%
    18:00 +7°C° 0.4 mm 9 mps 556 mmHg 62%
    19:00 +7°C° 0.4 mm 9 mps 556 mmHg 63%
    20:00 +6°C° 0.7 mm 8 mps 556 mmHg 65%
    21:00 +6°C° 0.7 mm 8 mps 556 mmHg 67%
    22:00 +5°C° 0.7 mm 7 mps 556 mmHg 69%
    23:00 +5°C° 0.1 mm 7 mps 556 mmHg 68%

    Tomorrow, 27 March, Wednesday

    Time Temperature Precipitation Wind Pressure Humidity
    00:00 +4°C° 0.1 mm 6 mps 556 mmHg 67%
    01:00 +5°C° 0.1 mm 5 mps 556 mmHg 66%
    02:00 +3°C° 0 mm 5 mps 556 mmHg 64%
    03:00 +4°C° 0 mm 4 mps 555 mmHg 62%
    04:00 +3°C° 0 mm 4 mps 555 mmHg 60%
    05:00 +3°C° 0 mm 3 mps 555 mmHg 60%
    06:00 +3°C° 0 mm 3 mps 556 mmHg 59%
    07:00 +4°C° 0 mm 2 mps 556 mmHg 59%
    08:00 +5°C° 0 mm 2 mps 557 mmHg 50%
    09:00 +6°C° 0 mm 2 mps 558 mmHg 42%
    10:00 +7°C° 0 mm 3 mps 558 mmHg 33%
    11:00 +8°C° 0 mm 3 mps 559 mmHg 30%
    12:00 +9°C° 0 mm 3 mps 559 mmHg 26%
    13:00 +10°C° 0 mm 3 mps 559 mmHg 23%
    14:00 +10°C° 0 mm 3 mps 559 mmHg 21%
    15:00 +11°C° 0 mm 3 mps 559 mmHg 19%
    16:00 +11°C° 0 mm 3 mps 559 mmHg 18%
    17:00 +12°C° 0 mm 2 mps 558 mmHg 20%
    18:00 +10°C° 0 mm 2 mps 558 mmHg 22%
    19:00 +11°C° 0 mm 1 mps 558 mmHg 24%
    20:00 +9°C° 0 mm 2 mps 558 mmHg 26%
    21:00 +8°C° 0 mm 2 mps 558 mmHg 27%
    22:00 +8°C° 0 mm 2 mps 558 mmHg 29%
    23:00 +7°C° 0 mm 2 mps 558 mmHg 31%

    Day after tomorrow, 28 March, Thursday

    Time Temperature Precipitation Wind Pressure Humidity
    00:00 +7°C° 0 mm 2 mps 558 mmHg 34%
    01:00 +5°C° 0 mm 3 mps 558 mmHg 36%
    02:00 +4°C° 0 mm 3 mps 557 mmHg 39%
    03:00 +5°C° 0 mm 2 mps 557 mmHg 42%
    04:00 +4°C° 0 mm 2 mps 557 mmHg 45%
    05:00 +4°C° 0 mm 2 mps 557 mmHg 46%
    06:00 +4°C° 0 mm 2 mps 557 mmHg 47%
    07:00 +4°C° 0 mm 2 mps 557 mmHg 48%
    08:00 +5°C° 0 mm 2 mps 558 mmHg 41%
    09:00 +6°C° 0 mm 2 mps 559 mmHg 33%
    10:00 +7°C° 0 mm 2 mps 559 mmHg 25%
    11:00 +8°C° 0 mm 2 mps 559 mmHg 22%
    12:00 +9°C° 0 mm 3 mps 559 mmHg 19%
    13:00 +9°C° 0 mm 3 mps 559 mmHg 16%
    14:00 +10°C° 0 mm 4 mps 559 mmHg 18%
    15:00 +9°C° 0 mm 5 mps 559 mmHg 20%
    16:00 +9°C° 0 mm 5 mps 558 mmHg 22%
    17:00 +8°C° 0.1 mm 6 mps 558 mmHg 27%
    18:00 +7°C° 0.1 mm 6 mps 558 mmHg 32%
    19:00 +5°C° 0.1 mm 6 mps 558 mmHg 37%
    20:00 +5°C° 0.1 mm 5 mps 558 mmHg 40%
    21:00 +4°C° 0.1 mm 4 mps 558 mmHg 43%
    22:00 +4°C° 0.1 mm 3 mps 558 mmHg 46%
    23:00 +4°C° 0 mm 2 mps 558 mmHg 47%

    29 March, Friday

    Time Temperature Precipitation Wind Pressure Humidity
    00:00 +4°C° 0 mm 2 mps 557 mmHg 49%
    01:00 +3°C° 0 mm 2 mps 557 mmHg 50%
    02:00 +4°C° 0 mm 1 mps 557 mmHg 51%
    03:00 +4°C° 0 mm 1 mps 557 mmHg 51%
    04:00 +3°C° 0 mm 1 mps 557 mmHg 52%
    05:00 +3°C° 0 mm 1 mps 557 mmHg 51%
    06:00 +3°C° 0 mm 1 mps 557 mmHg 50%
    07:00 +3°C° 0 mm 1 mps 558 mmHg 49%
    08:00 +4°C° 0 mm 1 mps 558 mmHg 43%
    09:00 +5°C° 0 mm 1 mps 559 mmHg 36%
    10:00 +6°C° 0 mm 1 mps 560 mmHg 30%
    11:00 +7°C° 0 mm 1 mps 560 mmHg 27%
    12:00 +8°C° 0 mm 1 mps 560 mmHg 24%
    13:00 +9°C° 0 mm 1 mps 560 mmHg 21%
    14:00 +10°C° 0 mm 1 mps 560 mmHg 20%
    15:00 +9°C° 0 mm 2 mps 559 mmHg 19%
    16:00 +10°C° 0 mm 2 mps 559 mmHg 18%
    17:00 +10°C° 0 mm 2 mps 559 mmHg 19%
    18:00 +11°C° 0 mm 1 mps 559 mmHg 21%
    19:00 +11°C° 0 mm 1 mps 559 mmHg 23%
    20:00 +10°C° 0 mm 1 mps 559 mmHg 25%
    21:00 +10°C° 0 mm 1 mps 559 mmHg 27%
    22:00 +9°C° 0 mm 1 mps 559 mmHg 29%
    23:00 +9°C° 0 mm 1 mps 559 mmHg 29%

    30 March, Saturday

    Time Temperature Precipitation Wind Pressure Humidity
    00:00 +9°C° 0 mm 1 mps 559 mmHg 29%
    01:00 +8°C° 0 mm 1 mps 559 mmHg 29%
    02:00 +8°C° 0 mm 1 mps 559 mmHg 32%
    03:00 +8°C° 0 mm 1 mps 558 mmHg 34%
    04:00 +6°C° 0 mm 0 mps 558 mmHg 37%
    05:00 +6°C° 0 mm 0 mps 558 mmHg 36%
    06:00 +7°C° 0 mm 1 mps 559 mmHg 36%
    07:00 +7°C° 0 mm 1 mps 559 mmHg 36%
    08:00 +8°C° 0 mm 1 mps 560 mmHg 32%
    09:00 +9°C° 0 mm 1 mps 561 mmHg 28%
    10:00 +11°C° 0 mm 1 mps 562 mmHg 23%
    11:00 +11°C° 0 mm 1 mps 562 mmHg 22%
    12:00 +12°C° 0 mm 1 mps 562 mmHg 21%
    13:00 +13°C° 0 mm 1 mps 562 mmHg 20%
    14:00 +14°C° 0 mm 1 mps 562 mmHg 19%
    15:00 +14°C° 0 mm 1 mps 562 mmHg 19%
    16:00 +14°C° 0 mm 2 mps 562 mmHg 19%
    17:00 +14°C° 0 mm 2 mps 562 mmHg 20%
    18:00 +14°C° 0 mm 2 mps 562 mmHg 22%
    19:00 +13°C° 0 mm 2 mps 562 mmHg 23%
    20:00 +13°C° 0 mm 2 mps 562 mmHg 25%
    21:00 +12°C° 0 mm 1 mps 562 mmHg 27%
    22:00 +12°C° 0 mm 1 mps 562 mmHg 29%
    23:00 +11°C° 0 mm 1 mps 561 mmHg 29%

    31 March, Sunday

    Time Temperature Precipitation Wind Pressure Humidity
    00:00 +10°C° 0 mm 2 mps 561 mmHg 29%
    01:00 +10°C° 0 mm 2 mps 561 mmHg 29%
    02:00 +10°C° 0 mm 2 mps 560 mmHg 29%
    03:00 +9°C° 0 mm 2 mps 560 mmHg 30%
    04:00 +9°C° 0 mm 2 mps 560 mmHg 30%
    05:00 +9°C° 0.1 mm 2 mps 560 mmHg 32%
    06:00 +9°C° 0.1 mm 2 mps 560 mmHg 33%
    07:00 +9°C° 0.1 mm 2 mps 560 mmHg 35%
    08:00 +9°C° 0.2 mm 2 mps 561 mmHg 37%
    09:00 +10°C° 0.2 mm 2 mps 561 mmHg 38%
    10:00 +12°C° 0.2 mm 2 mps 562 mmHg 39%
    11:00 +12°C° 0.2 mm 3 mps 562 mmHg 37%
    12:00 +13°C° 0.2 mm 4 mps 562 mmHg 35%
    13:00 +14°C° 0.2 mm 5 mps 562 mmHg 33%
    14:00 +15°C° 0 mm 5 mps 562 mmHg 33%
    15:00 +15°C° 0 mm 5 mps 562 mmHg 32%
    16:00 +16°C° 0 mm 5 mps 562 mmHg 32%
    17:00 +15°C° 0.3 mm 4 mps 562 mmHg 37%
    18:00 +14°C° 0.3 mm 3 mps 562 mmHg 42%
    19:00 +13°C° 0.3 mm 3 mps 561 mmHg 47%
    20:00 +14°C° 0.2 mm 2 mps 561 mmHg 50%
    21:00 +13°C° 0.2 mm 2 mps 561 mmHg 53%
    22:00 +13°C° 0.2 mm 2 mps 561 mmHg 56%
    23:00 +12°C° 0 mm 2 mps 561 mmHg 56%
    Show more